sat.trackr.live / text

‹ back to catalog

CHUANGXIN 1-03 (CX-1-03)

NORAD 37930 · 2011-068A

PAYLOAD ACTIVE UNKNOWN

§ Identity

Operator
Country
PRC
Launch date
2011-11-20
Launch site
JSC
Launch vehicle
Mass (kg)
RCS (m²)
0.62

External: N2YO · Heavens-Above · Gunter

§ Orbital elements

Epoch: 2026-09-20T05:26:13.231392Z

Period
100.66 min
Inclination
98.6983°
Eccentricity
0.0014510
Mean motion
14.30554639 rev/d
Perigee alt
779.5 km
Apogee alt
800.3 km
Semi-major
7,168.0 km
B*
4.1922e-5
RAAN
280.8509°
Arg perigee
193.7330°
Mean anomaly
233.3513°
Rev number
77,424

§ Raw data

CHUANGXIN 1-03 (CX-1-03)1 37930U 11068A   26263.22654203  .00000065  00000+0  41922-4 0  99932 37930  98.6983 280.8509 0014510 193.7330 233.3513 14.30554639774240

JSON: /api/v1/satellites/37930 · /tle

For live sub-satellite position, see the globe view (requires WebGL).

§ Visibility from observer

Set your observer location to see the next 7 days of passes ≥ 10°. The values pass through the URL so the page stays shareable.

No JS? Fill the form by hand. The geolocation button needs JavaScript.